Location: Unspecified
(50.1700°N, 6.8600°E)
Time: 20:00:25
(UTC+00:00)

Daily predictions for brighter satellites

Satellite Brightness Start Highest point End
(mag) Time Altitude Azimuth Time Altitude Azimuth Time Altitude Azimuth
USA 215 3.9 19:40:17 10° ENE 19:46:44 62° NNW 19:53:09 10° W
CZ-4C R/B 3.5 19:39:59 10° NW 19:47:03 60° SW 19:55:13 10° SSE
Cosmos 44 4.1 19:46:25 10° NW 19:51:47 52° NE 19:56:57 10° ESE
SOZ 4.2 19:49:49 10° WSW 19:52:36 89° NNW 19:54:50 10° ENE
Cosmos 2074 Rocket 4.4 19:49:13 10° N 19:55:22 51° ENE 20:01:29 10° SSE
USA 308 3.9 19:52:03 10° WNW 19:56:01 38° SW 20:00:00 10° SSE
Cosmos 2184 Rocket 4.3 19:50:32 10° N 19:56:34 50° ENE 20:02:32 10° SSE
Cosmos 1782 3.1 19:52:53 10° SSW 19:56:52 72° WNW 20:00:51 10° N
Cosmos 1500 3.4 19:57:12 10° NNW 20:00:57 73° W 20:04:39 10° S
CRYOSAT 2 4.4 20:00:03 10° SSE 20:04:55 72° E 20:09:48 10° N
Cosmos 1437 3.1 20:02:12 10° SSW 20:04:59 56° WNW 20:07:48 10° N
Meteor 1-5 Rocket 4.1 20:00:53 10° NNW 20:06:17 85° ENE 20:11:35 10° SSE
Gbstr 26 Del rocket 4.4 20:00:14 10° WNW 20:08:14 90° NNE 20:15:04 10° ESE
ERS-2 4.4 20:05:41 10° N 20:08:53 30° WNW 20:12:04 10° SW
BREEZE M DEB (TANK) 4.5 20:05:25 10° W 20:09:45 87° S 20:26:04 10° E
Terra 3.1 20:12:25 10° ESE 20:16:22 27° ENE 20:20:20 10° N
MetOp-B 4.2 20:12:15 10° SSE 20:17:36 86° ENE 20:23:00 10° NNW
Meteor 1-11 Rocket 4.0 20:11:46 10° N 20:17:42 62° ENE 20:23:30 10° SSE
Cosmos 1515 Rocket 3.6 20:16:34 10° S 20:20:58 88° E 20:25:21 10° N
Cosmos 1340 Rocket 3.9 20:18:00 10° N 20:21:39 30° ENE 20:24:45 13° SE
Cosmos 2228 Rocket 3.6 20:19:31 10° SSE 20:23:43 43° E 20:28:00 10° NNE
Tianhe-1 3.0 20:22:41 10° SSW 20:24:28 14° SSE 20:25:07 14° SSE
Cosmos 1869 Rocket 3.9 20:21:04 10° N 20:25:18 50° ENE 20:29:02 13° SSE
Resurs 01 Rocket 2.3 20:22:55 10° S 20:27:16 53° W 20:31:38 10° NNW
Cosmos 2112 Rocket 4.3 20:22:25 10° NNW 20:27:45 60° ENE 20:32:23 14° SE
BREEZE M DEB (TANK) 2.1 20:25:13 10° W 20:29:40 51° SSW 20:31:13 17° SE
Cosmos 2082 Rocket 2.5 20:24:37 10° NNW 20:30:12 67° WSW 20:35:40 11° SSE
SPOT 1/Viking Rocket 3.6 20:27:58 10° SSE 20:33:11 88° WSW 20:38:24 10° NNW
ERS-1 Rocket 3.4 20:29:27 13° SE 20:33:44 51° ENE 20:38:36 10° N
Cosmos 1943 Rocket 3.0 20:35:06 10° SSE 20:39:54 31° ESE 20:44:46 10° NE
Spot 2 Rocket 3.5 20:35:19 12° SSE 20:39:59 82° ENE 20:45:03 10° NNW
Meteor 2-12 Rocket 4.4 20:33:53 10° N 20:39:59 79° E 20:45:37 12° SSE
Cosmos 1937 Rocket 4.3 20:37:00 12° SSE 20:41:01 32° ESE 20:45:36 10° NE
ERBS 2.2 20:39:18 10° NW 20:42:38 82° NNE 20:44:57 18° ESE
Meteor 1-10 Rocket 4.3 20:37:53 10° S 20:43:30 89° ESE 20:49:16 10° NNE
Cosmos 1707 Rocket 4.5 20:41:46 16° SE 20:44:32 31° E 20:48:28 10° NNE
Cosmos 1536 2.8 20:41:40 10° N 20:45:42 71° E 20:48:44 17° SSE
CARTOSAT-1 3.5 20:42:25 15° SSE 20:46:01 81° ENE 20:50:21 10° NNW
CZ-2C R/B 3.8 20:42:06 10° NNE 20:46:38 84° WNW 20:51:14 10° SSW
SPOT 5 3.2 20:42:26 15° SSE 20:46:43 65° ENE 20:52:02 10° N
DNEPR-1 R/B 4.5 20:42:30 10° S 20:48:02 40° ESE 20:52:42 10° NE
Cosmos 1271 Rocket 3.1 20:46:24 10° SSW 20:50:23 68° WNW 20:54:24 10° N
Cosmos 2341 Rocket 4.5 20:46:48 10° N 20:53:01 49° ENE 20:57:43 17° SE
Cosmos 1680 Rocket 3.6 20:47:55 10° NNW 20:53:17 79° WSW 20:57:31 16° SSE
ISS -3.7 20:52:14 10° SW 20:55:30 52° SSE 20:58:48 10° ENE
Cosmos 1238 Rocket 4.3 20:50:09 10° N 20:55:43 40° ENE 20:59:05 18° SE
SL-24 DEB 4.5 20:52:57 18° SSE 20:56:12 54° E 21:00:44 10° N
Cosmos 2278 Rocket 3.2 20:51:14 10° SW 20:56:43 50° NW 21:02:15 10° NNE
Cosmos 2084 Rocket 3.5 20:53:44 10° NW 20:57:59 71° SW 21:00:52 21° SSE
Cosmos 1544 3.0 20:55:27 10° N 20:59:04 73° E 21:01:16 22° SSE
SJ 16-02 2.5 20:54:54 10° SW 20:59:10 45° WNW 21:03:28 10° NNE
Cosmos 2369 Rocket 3.3 20:58:46 18° SE 21:01:19 25° ESE 21:05:52 10° NE
Cosmos 1975 4.3 21:00:14 10° NNE 21:03:29 23° ENE 21:05:24 17° ESE
JB-3 4.2 21:04:51 10° NNE 21:08:44 88° WNW 21:12:01 14° SSW
Cosmos 1733 Rocket 3.4 21:05:51 10° N 21:10:04 49° ENE 21:12:25 24° SE
SL-8 Rocket 4.4 21:06:27 10° N 21:12:40 53° ENE 21:16:50 21° SE
ARIANE 5 R/B 3.2 21:10:14 15° S 21:13:39 52° W 21:17:54 10° NNW
RESURS DK-1 3.6 21:11:18 10° NNW 21:15:08 34° NE 21:17:43 17° ESE
BREEZE-M DEB (TANK) 2.0 21:17:03 10° W 21:18:56 34° SSW 21:18:58 34° SSW
CZ-4B DEB 4.2 21:21:13 33° SSE 21:22:32 90° SE 21:25:46 10° NNW
Cosmos 372 Rocket 4.4 21:20:07 23° SSE 21:22:43 40° ESE 21:27:28 10° NE
Cosmos 990 Rocket 4.2 21:19:58 10° SSW 21:25:12 72° WNW 21:30:30 10° NNE
Cosmos 1898 Rocket 3.6 21:22:52 10° SSW 21:28:11 83° WNW 21:33:35 10° NNE
USA 215 4.2 21:23:01 10° ENE 21:29:15 49° N 21:35:30 10° WNW
ATLAS 2AS CENTAUR R/B 3.4 21:23:02 10° NW 21:29:57 45° WSW 21:34:29 19° S
Meteor 1-27 Rocket 4.2 21:25:46 10° SSW 21:31:35 64° WNW 21:37:32 10° N
Cosmos 1818 4.0 21:30:27 10° NW 21:35:46 52° WSW 21:38:46 25° S
Cosmos 1743 3.1 21:33:19 10° NNW 21:37:08 57° W 21:39:06 26° SSW
Meteor 1-19 Rocket 4.1 21:43:17 26° S 21:46:19 66° E 21:51:43 10° NNE
BREEZE-M R/B 1.9 21:45:39 10° W 21:48:00 58° SSW 21:48:00 58° SSW
H-2A R/B 3.5 21:45:43 10° NNE 21:49:55 76° WNW 21:52:23 24° SSW
Cosmos 44 Rocket 4.1 21:47:40 10° NW 21:52:47 50° NE 21:56:12 20° ESE
Meteor 2-4 Rocket 4.1 21:50:59 28° SSE 21:53:31 46° E 21:58:49 10° NNE
Terra 2.5 21:51:09 22° SSW 21:53:54 47° W 21:58:31 10° NNW
Cosmos 1461 3.1 21:51:21 10° SW 21:56:05 84° NW 22:00:42 10° NE
Okean 1-7 3.9 21:56:31 29° ESE 21:57:28 32° E 22:01:20 10° NNE
Cosmos 1340 Rocket 4.5 21:54:32 10° NNW 21:58:02 28° W 22:00:21 16° SW
Cosmos 1862 Rocket 3.5 21:57:49 31° SSW 21:59:51 86° W 22:04:12 10° N
Cosmos 1703 Rocket 4.3 22:00:16 32° SE 22:01:23 37° E 22:05:29 10° NNE
Cosmos 2297 4.3 21:55:54 10° SW 22:01:31 58° NW 22:07:07 10° NNE
Cosmos 1782 Rocket 4.4 21:58:18 10° N 22:02:29 38° ENE 22:04:03 28° ESE
Okean 1 3.5 22:00:55 29° SSW 22:02:50 66° WNW 22:06:48 10° N
Cosmos 1833 4.3 21:57:39 10° NNW 22:03:26 75° ENE 22:06:28 29° SE
Cosmos 1125 Rocket 4.3 22:04:18 29° SE 22:05:37 34° ESE 22:10:16 10° NE
ATLAS CENTAUR R/B 1.6 22:10:15 40° ESE 22:10:15 40° ESE 22:13:37 10° NE
Cosmos 1607 4.1 22:06:38 22° SSW 22:10:47 60° ESE 22:17:11 10° NE
Cosmos 1821 Rocket 4.3 22:08:02 10° N 22:14:22 57° ENE 22:17:36 29° SE
Cosmos 2366 rocket 4.1 22:09:23 10° NNW 22:15:34 72° W 22:18:59 28° S
ERBS 4.4 22:16:11 10° W 22:17:42 15° WSW 22:17:42 15° WSW
Cosmos 2181 Rocket 4.1 22:16:13 23° SSW 22:20:13 73° W 22:26:22 10° N
Cosmos 1943 Rocket 2.9 22:17:56 10° SW 22:23:26 52° NW 22:28:54 10° NNE
Cosmos 1867 3.5 22:28:40 22° SW 22:32:14 84° SE 22:37:46 10° NE
ISS -3.5 22:28:56 10° W 22:32:18 69° N 22:35:41 10° ENE
Spot 4 3.8 22:30:35 40° SSE 22:32:21 86° WSW 22:37:15 10° NNW
Cosmos 1656 Rocket 3.5 22:30:07 32° SSW 22:32:43 76° ESE 22:38:18 10° NNE
Cosmos 1975 3.9 22:36:24 10° NNW 22:40:02 35° W 22:41:09 29° SW
Cosmos 1048 Rocket 4.2 22:35:44 10° NNW 22:40:57 58° WSW 22:42:47 37° SSW
Cosmos 1733 4.4 22:39:38 10° N 22:43:04 32° ENE 22:43:52 29° E
Cosmos 2369 Rocket 2.6 22:40:29 16° SW 22:44:55 63° WNW 22:50:34 10° NNE
Cosmos 2344 4.3 22:38:08 10° NW 22:47:12 86° SW 22:56:38 20° SE
ALOS 2 2.5 22:47:43 48° SSE 22:48:55 81° ENE 22:53:19 10° NNW
BREEZE-M DEB (TANK) 4.3 22:35:44 10° WNW 22:50:46 55° SW 22:52:48 36° SSE
SeaSat 1 4.4 22:49:12 10° ENE 22:51:49 14° ESE 22:52:11 14° ESE
Okean 3 3.5 22:51:44 52° SSE 22:52:31 64° E 22:56:42 10° NNE
RESURS DK-1 3.3 22:49:23 10° NW 22:53:08 33° WSW 22:53:36 32° SW
SL-27 R/B 3.0 22:49:56 10° NW 22:53:01 43° W 22:53:01 43° W
Lacrosse 5 2.3 22:54:17 39° SE 22:54:30 39° SE 22:59:13 10° ENE
Cosmos 1356 Rocket 3.4 22:52:27 10° NNW 22:56:47 82° WSW 22:57:43 54° S
NOSS 2-1 (E) 4.1 22:52:36 10° NW 22:57:25 87° SW 23:00:42 30° SE
Cosmos 1269 Rocket 4.1 22:55:42 10° NNW 23:01:01 71° ENE 23:03:10 36° SE
Cosmos 1300 Rocket 3.7 22:57:28 10° N 23:01:52 65° ENE 23:02:56 47° SE
Nadezhda 3 Rocket 3.9 22:59:44 35° S 23:02:35 90° E 23:08:49 10° N
Meteor 1-12 Rocket 4.4 23:04:18 10° NNW 23:10:06 66° W 23:12:18 38° SSW
USA 215 3.6 23:05:21 10° ESE 23:11:50 67° NNE 23:18:19 10° WNW
Cosmos 2298 Rocket 4.5 23:09:55 26° SW 23:12:51 58° WNW 23:18:06 10° NNE
Thor Agena Rocket 3.9 23:08:54 10° NNE 23:14:05 53° E 23:15:40 39° SSE
Sich 1 Rocket 3.5 23:11:00 10° NNW 23:15:35 84° W 23:16:39 53° S
COSMOS 2455 3.2 23:11:43 10° NNW 23:17:43 64° NE 23:21:46 21° SE
Cosmos 1805 3.1 23:14:04 10° N 23:17:59 87° W 23:18:27 68° S
Cosmos 1726 4.0 23:16:38 10° NNE 23:19:35 22° ENE 23:20:43 19° E
Cosmos 1605 Rocket 4.2 23:14:21 10° N 23:20:37 64° ENE 23:23:40 32° SSE
Cosmos 1378 3.6 23:22:00 46° WSW 23:22:32 51° WNW 23:26:12 10° N
Cosmos 1066 Rocket 4.2 23:22:33 39° SSW 23:24:48 85° W 23:30:27 10° NNE
MTI 3.9 23:22:06 10° N 23:24:50 62° NW 23:24:50 62° NW
Okean 2 Rocket 3.0 23:22:45 10° N 23:27:11 90° WSW 23:28:09 55° S
COBE Rocket 4.2 23:26:12 41° SSW 23:27:46 58° W 23:32:54 10° NNW
Meteor 1-15 Rocket 4.3 23:22:07 10° NNW 23:27:50 75° W 23:30:02 40° S
Cosmos 2151 Rocket 3.6 23:24:41 10° N 23:29:13 76° E 23:30:21 49° SSE
Cosmos 2227 Rocket 3.2 23:27:31 10° NNW 23:32:54 42° NE 23:37:44 12° ESE
Cosmos 44 Rocket 4.1 23:29:30 10° NW 23:34:15 36° WSW 23:34:54 34° SW
SAR-Lupe-2 3.9 23:31:36 10° N 23:35:08 54° WNW 23:35:36 49° WSW
Cosmos 2297 Rocket 2.8 23:29:37 10° NNW 23:35:11 53° NE 23:39:09 19° SE
PSLV R/B 4.0 23:31:30 10° NNE 23:35:41 46° E 23:36:26 41° SE
Cosmos 1766 3.1 23:32:32 10° NNW 23:36:30 80° W 23:36:58 66° SSW
EO 1 Delta rocket 4.5 23:34:38 36° SSE 23:37:04 76° ENE 23:43:49 10° N
Timation 2 Rocket 4.4 23:39:11 10° NNW 23:45:05 56° NE 23:49:54 16° SE
COSMOS 2487 3.3 23:43:26 10° NW 23:46:11 37° W 23:46:11 37° W
Cosmos 1125 Rocket 4.5 23:44:32 21° WSW 23:47:36 42° WNW 23:52:34 10° NNE
ATLAS CENTAUR R/B 2.9 23:46:21 14° W 23:49:00 29° NW 23:52:27 10° NNE
Cosmos 1934 Rocket 4.2 23:45:06 10° NNW 23:51:03 54° W 23:53:27 34° SSW
Cosmos 1378 Rocket 3.7 23:53:20 48° SSE 23:54:16 62° E 23:58:32 10° NNE
